Wind_Speed
39 40 42 43 44 45 46 47 49 50 51 51 51 51 52 52 52 52 51 51 51 50 49 48 48 47 47 47 46 46 46 45 45 44 43 42 43 42 42 42 41 42 42
40 41 43 44 45 46 47 49 50 51 53 53 54 54 54 55 55 54 53 53 53 53 52 51 51 50 50 50 50 49 48 47 47 46 45 44 44 44 44 43 43 43 43
41 42 43 44 45 46 48 49 51 53 54 55 55 56 56 57 56 55 55 55 55 55 54 53 53 53 52 52 52 52 51 50 49 49 48 47 46 45 45 46 46 45 44
42 42 43 45 46 46 48 49 50 52 53 55 56 56 57 57 58 57 56 56 56 55 56 56 55 55 55 54 53 53 52 52 51 51 50 50 49 48 46 46 47 47 47
42 43 44 44 45 46 47 48 50 51 52 53 55 55 56 57 58 58 58 58 57 57 57 58 57 57 57 56 55 54 54 53 53 53 52 52 51 51 50 48 47 47 47
42 43 43 43 44 45 46 46 48 49 51 52 54 55 55 56 56 57 57 58 58 57 57 57 58 58 57 57 56 55 55 55 55 54 54 53 52 51 51 51 50 49 48
42 42 43 43 44 45 46 47 47 48 50 51 53 54 55 56 56 56 57 58 57 57 58 58 58 58 57 57 56 55 56 56 56 56 55 54 54 52 52 52 52 52 50
43 43 43 44 45 46 46 47 48 49 49 50 52 53 54 55 56 56 57 57 58 57 58 58 57 57 57 57 57 57 56 56 56 56 56 55 54 54 53 53 53 53 52
43 44 44 45 45 46 46 47 48 48 48 49 51 52 53 54 55 55 56 57 58 58 58 57 57 57 57 58 58 58 58 57 56 56 57 57 56 55 55 54 54 54 53
44 44 45 45 45 46 47 47 48 48 48 49 50 51 52 53 54 54 54 55 56 57 57 57 57 56 57 58 58 58 58 58 57 57 56 57 57 57 56 55 55 55 54
44 45 45 45 45 46 47 47 47 47 47 48 49 51 51 52 53 53 53 54 55 55 55 55 55 56 57 57 57 58 58 58 58 57 57 57 58 58 57 57 57 55 54
45 45 45 45 45 46 46 46 46 47 47 47 48 50 51 51 52 52 53 53 54 54 55 54 55 55 56 56 56 56 57 58 58 58 58 58 57 58 58 58 58 56 54
45 44 44 44 44 44 45 45 45 46 46 46 47 48 49 50 50 51 51 52 53 54 54 55 56 57 57 56 57 57 57 57 58 58 59 59 58 57 57 58 58 58 56
44 44 43 43 43 43 44 44 44 45 45 46 46 47 48 48 49 49 50 50 51 52 53 54 56 57 57 57 57 57 57 56 56 57 57 57 57 56 56 56 56 57 56
44 43 43 42 42 43 43 44 44 45 45 45 45 45 46 47 47 47 48 48 48 48 50 52 53 54 55 56 56 56 56 56 56 55 56 56 55 56 55 55 55 56 56
43 43 42 42 42 42 42 42 43 44 44 44 44 44 44 44 45 46 47 47 47 47 48 50 51 52 53 54 54 55 55 54 53 53 53 54 55 55 55 55 55 54 54
43 42 42 41 41 41 42 42 43 43 43 43 42 42 43 43 44 44 45 47 47 47 48 48 49 49 50 51 53 54 53 52 51 51 50 51 52 53 53 53 54 53 52
43 42 41 41 41 41 41 41 41 42 42 42 42 42 42 42 42 43 44 45 45 46 47 46 47 47 47 48 49 51 52 51 49 49 49 50 50 51 52 52 52 52 51
42 42 41 41 40 40 41 41 41 41 42 42 42 42 41 41 41 41 42 42 42 43 44 44 44 44 44 45 46 47 48 48 48 47 47 47 48 49 50 50 50 50 50
42 41 41 40 40 41 41 41 41 40 40 39 39 39 40 40 39 39 40 40 40 41 41 41 41 41 41 41 42 43 44 45 46 46 46 46 47 47 47 48 49 49 49
41 41 41 41 41 42 42 41 40 39 38 38 37 37 37 37 37 38 38 39 39 39 39 38 39 39 39 39 40 40 41 41 42 43 44 44 45 45 45 45 46 47 47
41 41 41 41 41 41 41 40 39 38 37 37 37 37 35 35 35 35 36 37 37 37 37 37 36 37 37 36 37 38 38 38 39 40 41 42 42 42 43 43 44 45 46
42 41 41 41 41 40 40 40 38 37 35 35 35 34 34 33 33 33 33 33 34 35 35 35 35 36 36 36 35 36 37 38 37 37 38 39 40 40 41 41 42 43 43
42 41 40 40 40 40 39 38 37 36 35 34 33 33 33 32 32 33 32 33 33 33 33 33 33 33 34 34 35 34 35 36 37 37 37 37 38 39 39 40 40 41 42
41 41 40 40 40 39 38 37 37 36 35 34 33 32 32 31 31 31 30 31 31 31 31 31 32 32 32 33 33 33 34 34 35 35 36 36 36 37 37 38 39 39 39
41 41 40 39 39 39 38 37 37 36 35 34 33 33 32 31 30 30 30 30 30 30 30 30 30 30 30 32 33 33 33 33 34 34 35 34 34 34 34 35 36 37 38
Wind_Direction
274 275 274 273 272 271 269 267 265 264 262 261 261 261 262 263 263 264 264 265 265 264 264 264 263 262 261 261 259 259 258 257 257 257 258 257 257 257 257 256 255 255 254
276 276 276 275 273 272 271 269 267 265 263 262 261 261 262 262 263 263 263 264 264 264 263 263 263 262 261 260 259 259 258 258 257 258 258 257 257 256 255 255 256 256 256
279 278 277 276 275 274 273 271 269 266 265 263 262 261 261 261 262 262 263 263 264 263 263 262 261 261 261 260 260 259 259 258 258 258 258 257 257 257 256 256 256 255 255
281 280 279 278 277 275 274 273 271 269 266 264 262 261 261 261 261 261 261 262 263 262 263 262 261 261 261 260 260 259 259 258 258 257 257 258 258 257 256 256 255 255 255
283 282 280 280 278 277 276 274 273 271 268 265 263 261 261 261 261 261 261 261 262 261 261 261 260 260 260 260 259 258 257 257 257 257 258 258 258 258 257 256 255 254 254
285 284 282 281 279 278 277 276 274 272 269 267 265 263 261 261 261 261 261 261 262 262 261 260 259 259 259 258 257 257 257 257 257 257 257 257 258 258 257 256 255 254 254
287 286 284 283 281 280 278 276 275 273 271 268 266 263 262 261 261 261 261 261 261 261 260 260 259 258 258 258 257 256 256 256 256 256 257 257 257 257 258 257 256 255 254
290 288 286 285 283 281 279 277 276 275 272 269 266 264 263 262 262 262 262 261 260 260 260 258 258 258 258 258 257 257 257 256 256 256 256 257 258 258 258 258 257 256 255
292 291 288 286 285 283 280 278 277 276 273 270 267 265 263 262 262 262 262 262 261 259 259 258 257 257 257 258 257 257 257 257 257 257 256 256 256 257 258 258 258 258 257
294 292 290 287 285 283 281 280 278 276 275 272 269 267 265 264 263 263 263 263 262 260 258 257 257 256 257 258 258 257 257 257 257 257 256 256 256 256 257 257 257 258 257
297 294 291 289 287 285 283 282 279 277 276 275 272 269 267 264 263 263 263 263 263 261 260 258 258 257 257 257 258 258 257 257 257 257 257 257 256 255 256 256 256 257 257
299 296 293 291 289 286 285 283 281 279 277 276 274 271 268 266 264 263 263 264 263 261 260 259 259 258 257 256 257 258 257 257 257 257 257 257 257 256 255 255 255 255 255
301 298 295 292 291 288 285 283 282 281 279 277 275 273 270 268 266 264 264 264 264 262 261 261 260 259 258 258 257 258 257 258 258 257 257 257 257 256 255 254 254 253 253
302 301 298 294 292 290 287 284 283 283 281 279 277 275 272 270 268 266 264 264 265 263 262 261 261 260 259 258 258 257 257 257 257 258 257 256 256 255 255 254 253 253 252
303 302 299 296 293 291 289 287 285 284 283 282 278 276 274 271 269 267 265 265 266 265 264 262 262 262 260 259 258 258 257 257 257 256 256 255 254 254 253 253 252 251 251
303 303 300 298 296 293 290 289 286 284 284 284 280 277 275 272 270 268 267 266 267 267 266 265 264 263 261 260 258 257 257 257 256 256 255 254 253 253 252 251 251 250 250
303 303 302 300 297 295 293 290 288 286 284 283 282 279 276 274 272 271 269 268 268 268 268 267 266 263 262 261 259 258 257 256 256 255 254 254 253 252 252 251 250 249 249
303 303 302 300 299 297 296 294 291 288 286 284 283 281 278 275 274 273 272 270 270 269 268 268 266 264 262 261 259 257 256 255 255 255 255 254 252 251 250 250 250 250 250
304 304 303 301 299 298 297 297 295 291 288 285 283 281 279 277 276 274 273 272 271 270 269 268 266 265 262 261 260 258 257 255 254 254 254 253 252 251 250 250 250 250 250
305 305 304 302 301 299 298 298 298 295 291 287 283 281 280 279 276 276 276 274 272 271 270 269 267 265 263 261 259 259 257 256 254 253 253 253 253 251 251 249 249 249 249
306 305 305 304 302 301 300 299 299 297 294 289 285 284 283 282 279 277 276 275 273 271 270 268 266 264 263 261 259 258 257 256 254 253 252 252 252 252 251 250 249 249 248
305 305 305 304 303 303 302 301 299 297 295 292 287 285 285 283 281 278 277 276 274 271 269 267 265 263 262 260 259 257 255 254 253 253 251 251 250 250 250 250 249 248 248
304 304 304 304 304 304 303 302 301 299 297 294 292 287 284 283 281 280 280 278 274 272 270 268 265 262 260 259 258 255 254 254 252 252 252 250 249 249 249 250 249 249 247
303 304 304 304 305 305 305 303 301 298 296 295 292 290 286 282 281 280 280 279 276 273 271 268 266 263 260 258 256 255 253 252 251 251 250 249 248 249 249 249 249 249 248
303 303 303 303 304 305 305 303 302 300 298 296 293 290 288 284 282 281 281 280 277 274 272 270 267 263 260 258 257 255 253 251 249 248 247 246 247 247 248 250 249 248 248
303 302 302 302 303 305 305 303 300 299 298 296 293 291 289 287 284 282 280 280 278 275 273 271 268 265 262 259 257 255 253 250 248 247 246 245 245 247 248 248 247 247 247
Height
5715 5715 5714 5714 5713 5713 5713 5713 5713 5714 5716 5717 5719 5721 5722 5724 5725 5726 5727 5728 5730 5731 5732 5734 5736 5737 5738 5740 5741 5743 5745 5746 5748 5750 5753 5755 5757 5759 5761 5763 5765 5767 5770
5705 5704 5703 5702 5701 5701 5700 5700 5700 5700 5701 5702 5704 5706 5708 5709 5711 5712 5713 5715 5716 5717 5719 5721 5722 5724 5726 5727 5729 5730 5732 5734 5736 5738 5740 5743 5747 5748 5750 5752 5754 5757 5759
5694 5692 5691 5689 5688 5687 5687 5686 5685 5685 5686 5687 5689 5690 5692 5694 5695 5697 5699 5700 5702 5703 5704 5706 5708 5710 5711 5713 5715 5717 5720 5722 5724 5725 5728 5730 5734 5736 5739 5741 5743 5745 5748
5682 5680 5678 5677 5675 5674 5672 5671 5670 5670 5670 5671 5672 5674 5676 5678 5680 5681 5683 5685 5686 5688 5689 5691 5693 5695 5697 5699 5701 5703 5706 5708 5711 5713 5715 5717 5719 5722 5726 5729 5731 5733 5736
5670 5668 5666 5664 5662 5660 5659 5658 5657 5656 5655 5656 5657 5658 5660 5662 5663 5665 5668 5669 5670 5672 5673 5675 5677 5679 5682 5684 5687 5689 5691 5694 5696 5699 5701 5703 5705 5707 5711 5715 5718 5720 5723
5658 5656 5654 5651 5649 5647 5645 5644 5643 5642 5641 5641 5642 5643 5644 5646 5648 5649 5651 5652 5654 5655 5657 5658 5661 5663 5666 5668 5671 5674 5676 5679 5682 5684 5686 5689 5691 5694 5696 5700 5704 5706 5710
5647 5644 5642 5639 5637 5634 5632 5630 5629 5628 5627 5626 5627 5628 5629 5630 5632 5633 5635 5636 5638 5640 5641 5643 5645 5647 5650 5652 5655 5658 5661 5663 5666 5669 5672 5674 5677 5679 5682 5685 5689 5692 5697
5635 5632 5629 5627 5624 5622 5619 5617 5616 5614 5612 5612 5612 5612 5613 5615 5616 5618 5619 5620 5622 5624 5625 5626 5629 5631 5634 5636 5639 5642 5645 5648 5650 5653 5656 5659 5662 5665 5667 5671 5674 5677 5682
5623 5619 5617 5614 5611 5609 5606 5604 5602 5600 5598 5597 5597 5597 5598 5599 5600 5602 5603 5604 5605 5607 5608 5610 5613 5615 5618 5620 5623 5626 5629 5632 5635 5638 5641 5644 5647 5650 5653 5656 5659 5662 5667
5611 5607 5604 5601 5598 5595 5593 5590 5588 5586 5584 5583 5583 5583 5583 5584 5585 5586 5587 5588 5589 5591 5592 5594 5596 5599 5602 5604 5607 5610 5612 5615 5618 5621 5625 5628 5631 5634 5637 5641 5644 5647 5650
5599 5595 5592 5588 5585 5582 5579 5577 5575 5573 5571 5569 5568 5568 5568 5568 5569 5570 5571 5572 5573 5574 5576 5578 5581 5583 5585 5588 5591 5593 5596 5599 5602 5605 5608 5611 5615 5618 5621 5625 5628 5631 5634
5588 5583 5579 5576 5572 5569 5566 5564 5562 5559 5557 5556 5554 5553 5553 5553 5554 5555 5556 5556 5558 5559 5560 5562 5564 5567 5569 5571 5574 5577 5579 5582 5586 5589 5592 5595 5598 5601 5605 5608 5612 5616 5619
5577 5572 5568 5564 5561 5557 5554 5551 5549 5546 5544 5542 5541 5539 5538 5538 5539 5540 5540 5541 5542 5543 5545 5546 5548 5550 5552 5555 5557 5560 5563 5566 5569 5572 5575 5578 5581 5585 5588 5592 5595 5600 5604
5566 5562 5557 5553 5549 5546 5543 5540 5537 5534 5532 5529 5527 5525 5524 5524 5524 5525 5526 5526 5527 5528 5529 5530 5532 5534 5536 5538 5540 5543 5546 5550 5553 5555 5558 5561 5565 5568 5572 5575 5579 5583 5588
5556 5552 5547 5542 5538 5535 5531 5528 5525 5522 5519 5517 5514 5512 5511 5511 5511 5511 5512 5512 5512 5513 5514 5515 5516 5518 5519 5521 5523 5526 5529 5533 5536 5539 5542 5545 5548 5551 5555 5559 5563 5567 5571
5547 5541 5536 5532 5527 5524 5520 5517 5513 5510 5508 5505 5502 5500 5499 5498 5497 5498 5498 5498 5498 5498 5499 5500 5501 5502 5504 5505 5507 5509 5512 5516 5519 5522 5525 5528 5532 5535 5539 5543 5547 5551 5556
5536 5531 5526 5521 5517 5513 5509 5505 5502 5498 5496 5492 5490 5488 5487 5486 5485 5484 5484 5484 5484 5484 5485 5485 5486 5487 5488 5490 5491 5493 5496 5500 5504 5506 5510 5513 5516 5519 5523 5527 5531 5536 5541
5526 5521 5516 5511 5507 5502 5498 5494 5490 5487 5484 5481 5479 5476 5475 5474 5473 5472 5471 5470 5470 5470 5471 5471 5472 5473 5474 5475 5476 5478 5481 5485 5489 5491 5494 5497 5501 5504 5508 5512 5517 5522 5527
5516 5511 5506 5501 5497 5492 5488 5483 5479 5475 5472 5469 5466 5464 5462 5461 5460 5459 5458 5457 5457 5457 5457 5457 5458 5459 5460 5461 5462 5464 5467 5471 5475 5478 5480 5483 5487 5491 5494 5498 5503 5508 5512
5507 5501 5496 5491 5487 5482 5477 5473 5468 5464 5460 5457 5455 5453 5451 5449 5448 5447 5446 5444 5444 5444 5444 5445 5445 5446 5447 5448 5449 5451 5454 5458 5461 5465 5468 5471 5474 5476 5479 5484 5489 5494 5498
5497 5492 5487 5482 5477 5472 5467 5462 5458 5454 5450 5446 5444 5441 5439 5437 5436 5435 5433 5432 5432 5432 5432 5433 5433 5434 5435 5436 5437 5439 5441 5444 5448 5451 5455 5458 5461 5463 5467 5470 5475 5480 5484
5488 5482 5477 5472 5467 5462 5457 5452 5448 5443 5439 5436 5433 5431 5428 5425 5424 5423 5422 5420 5419 5420 5420 5421 5421 5422 5423 5424 5426 5427 5430 5432 5435 5439 5442 5445 5448 5451 5455 5458 5462 5466 5470
5478 5473 5467 5462 5457 5452 5447 5442 5438 5433 5430 5426 5423 5420 5418 5415 5413 5412 5411 5410 5409 5408 5409 5409 5410 5411 5412 5413 5415 5417 5419 5421 5424 5427 5430 5433 5436 5439 5443 5446 5450 5453 5457
5468 5463 5458 5453 5447 5442 5437 5432 5428 5424 5420 5417 5413 5410 5408 5406 5404 5402 5401 5400 5399 5398 5398 5398 5399 5400 5402 5403 5405 5406 5408 5410 5413 5416 5419 5422 5425 5428 5432 5435 5439 5442 5446
5457 5452 5448 5443 5438 5432 5427 5422 5418 5414 5411 5407 5404 5401 5399 5397 5395 5393 5392 5390 5389 5388 5388 5388 5389 5390 5392 5393 5394 5395 5398 5400 5403 5406 5409 5412 5415 5418 5421 5424 5428 5431 5435
5447 5442 5437 5432 5428 5423 5418 5413 5409 5405 5401 5398 5395 5392 5390 5387 5386 5384 5383 5381 5380 5379 5378 5378 5379 5380 5381 5382 5384 5385 5387 5390 5392 5395 5398 5402 5405 5408 5411 5414 5417 5421 5424